Regional Weather Roundup
Issued by NWS Goodland, KS

Home | Current Version | Previous Version | Graphics & Text | Print | Product List | Glossary On
Versions: 1 2 3 4 5 6 7 8 9 10 11 12 13 14 15 16 17 18 19 20 21 22 23 24 25 26 27 28 29 30 31 32 33 34 35 36 37 38 39 40 41 42 43 44 45 46 47 48 49 50
036
ASUS43 KGLD 110208
RWRGLD

GOODLAND FORECAST AREA HOURLY WEATHER ROUNDUP
NATIONAL WEATHER SERVICE GOODLAND KS
700 PM MST SUN DEC 10 2017

...OFFICIAL OBSERVATIONS...

CITY           SKY/WX    TMP DP  RH WIND       PRES   REMARKS
GOODLAND KS    CLOUDY    36   2  23 SW10      30.26S
HILL CITY KS   CLEAR     42  15  33 W9        30.21F
IMPERIAL NEB   CLOUDY    42   3  19 W7        30.23S
MCCOOK NEB     CLEAR     40   9  28 W10       30.20S
AKRON CO       CLOUDY    41  -5  14 NW6       30.29S
BURLINGTON CO  CLOUDY    30   2  30 SW10      30.30S
LIMON CO       CLOUDY    19  -5  34 NW3       30.34S
$$

...UNOFFICIAL OBSERVATIONS...

CITY           SKY/WX    TMP DP  RH WIND       PRES   REMARKS
COLBY KS       CLOUDY    30  10  43 W7        30.25F
LENORA KS        N/A     42  32  68 SW8         N/A
NORTON KS      CLEAR     39   1  20 W6        30.18
SHARON SPRINGS   N/A     32   4  30 W7          N/A
TRENTON NEB      N/A     49  32  52 W6          N/A
KIT CARSON CO    N/A     34   1  25 CALM        N/A
YUMA CO        FAIR      30   0  27 W10       30.28S
$$




USA.gov is the U.S. government's official web portal to all federal, state and local government web resources and services.